星链-3532 (STARLINK-3532 )

导读

STARLINK-3532是美国SpaceX公司星链(Starlink)卫星互联网星座中的一颗卫星,于2022年2月21日发射入轨。作为星链低轨星座的组成部分,它运行在近地轨道,服务全球高速低延迟互联网覆盖,尤其为偏远地区、海洋航空等传统网络盲区提供宽带接入,助力缩小数字鸿沟,同时也参与到应急通信等领域应用。星链项目计划部署数万颗卫星,该星是星座规模化部署中的一环,推动全球卫星互联网组网进程。

基本信息
目录编号:
51727
目录名称:
STARLINK-3532
国际标识:
2022-016P
轨道中心:
EARTH
卫星名称:
星链-3532
卫星全名:
星链-3532 (STARLINK-3532 )
卫星状态:
在轨 (已飞行1656 天)
发射日期:
2022-02-21 UTC
国别 :
美国 (US)
星等 :
--
轨道信息
数据来源 国际轨道数据 AOE轨道数据
星历时间 2026-09-03T14:10:30+0800
22小时前
查看轨道信息
2026-09-04T00:00:00+0800
12小时前
查看轨道信息
半长轴 6840.873km 6840.883km
偏心率 0.0001677 0.0001814
轨道倾角 53.159° 53.157°
近地点辐角 89.868° 81.096°
升交点赤经 243.972° 242.061°
平近点角 270.251° 21.593°
近地点 461.588km 461.505km
远地点 463.884km 463.987km
周期 93.848分钟 93.849分钟
每日圈数 15.34389 15.343857
详细信息
固有亮度:
5
最大亮度:
2.5
卫星平台:
Starlink v1.5
覆盖范围:
全球
运营商:
太空探索技术公司
运营商所在国:
美国
制造商(研发单位):
太空探索技术公司
制造商所在国:
美国
使用方式:
暂无
卫星简介
星链(Starlink)计划是由太空探索技术公司(SpaceX)提出的一个巨型低轨卫星互联网星座项目,计划在2019年至2024年间在太空搭建由约1.2万颗卫星组成的“星链”网络,其中1584颗将部署在地球上空550千米处的近地轨道,并从2020年开始工作。该卫星仍在工作。
2D轨道图
3D轨道图
轨道高度分析图
轨道倾角分析图
轨道综合分析图
查看轨道综合分析图
交会数据列表
事件ID 空间交会对象 最接近时刻(TCA) 交会距离 交会风险概率(CRP) 交会风险指数(CRI) 操作
CDM_260905-143105-172706-230621
2026-09-05T
14:31:54+0000
2.458 km
极远距离
1.597935E-6 低风险 0.39
CDM_260903-104205-172705-299024
2026-09-03T
10:42:06+0000
2.543 km
极远距离
1.437611E-6 低风险 0.38
CDM_260904-220605-172705-315421
2026-09-04T
22:06:11+0000
2.827 km
极远距离
1.284522E-6 低风险 0.37